User: anonymous   Login
Location: Platte
(43.3870°N, 98.8440°W)
Time: 17:14:57
(UTC-05:00)
Language:

Landsat 7 - Orbit

View from above orbital plane
View from above orbital plane
View from above satellite
View from above satellite

Ground track
Ground track

The orbit data is extracted from the following two-line orbital elements,

1 25682U 99020A   17268.24597383  .00000107  00000-0  33768-4 0  9997
2 25682  98.2022 337.9715 0001054  83.7565 276.3774 14.57110121981161
Epoch (UTC): 25 September 2017 05:54:12
Eccentricity: 0.0001054
inclination: 98.2022°
perigee height: 702 km
apogee height: 703 km
right ascension of ascending node: 337.9715°
argument of perigee: 83.7565°
revolutions per day: 14.57110121
mean anomaly at epoch: 276.3774°
orbit number at epoch: 98116

The dashed part of the orbit path shows where the satellite is in the earth's shadow,  

DLR